Location: Blangy-Tronville
(49.8790°N, 2.4226°E)
Time: 02:47:27
(UTC+00:00)

Cosmos 2058 - Pass Details

Date: 18 November 2025
Orbit: 529 x 541 km, 82.5° (Epoch: 04 December)

Event Time Altitude Azimuth Distance (km) Brightness Sun altitude
Rises 17:26:46 0° 352° (N) 2,706 6.3 -13.3°
Reaches altitude 10° 17:28:57 10° 356° (N) 1,811 5.4 -13.7°
Maximum altitude 17:32:54 61° 78° (ENE) 621 2.7 -14.3°
Drops below altitude 10° 17:36:49 10° 159° (SSE) 1,802 5.4 -14.9°
Sets 17:38:59 0° 163° (SSE) 2,691 6.3 -15.3°
